Waarnemingen

Advertentie
Mijn weer
Spa/La Sauveniere, België (6490): temperatuur & dauwpunt: 29.05.2020 05:00:00 - 04.06.2020 05:00:00 (CEST)Spa/La Sauveniere, België (6490): windsnelheid & windstoten: 29.05.2020 05:00:00 - 04.06.2020 05:00:00 (CEST)Spa/La Sauveniere, België (6490): windrichting: 29.05.2020 05:00:00 - 04.06.2020 05:00:00 (CEST)Spa/La Sauveniere, België (6490): luchtdruk: 29.05.2020 05:00:00 - 04.06.2020 05:00:00 (CEST)Spa/La Sauveniere, België (6490): zicht: 29.05.2020 05:00:00 - 04.06.2020 05:00:00 (CEST)
Datum & Tijd tt [°C] td [°C] ff [km/u] ff [kn] fx [km/u] fx [kn] dd ppp [hPa] vv [km]
04.06.2020 05:00:00 11,7 8,9 7 4 - - NNW 999,1 25
04.06.2020 04:00:00 12,5 7,7 4 2 7 4 NNO 999,2 40
04.06.2020 03:00:00 13,1 8,1 4 2 7 4 ONO 1000,1 40
04.06.2020 02:00:00 13,0 8,5 4 2 - - O 1000,8 45
04.06.2020 01:00:00 13,4 8,2 4 2 14 8 O 1001,4 45
04.06.2020 00:00:00 13,6 8,4 0 0 7 4 N 1001,9 35
03.06.2020 23:00:00 14,6 7,4 0 0 - - N 1002,1 45
03.06.2020 22:00:00 15,1 9,5 4 2 11 6 ONO 1002,1 40
03.06.2020 21:00:00 17,6 9,9 7 4 11 6 NW 1001,6 40
03.06.2020 20:00:00 19,1 10,8 4 2 - - NW 1001,8 35
03.06.2020 19:00:00 19,9 9,0 11 6 22 12 NW 1001,8 35
03.06.2020 18:00:00 20,3 8,7 7 4 14 8 WNW 1002,2 35
03.06.2020 17:00:00 19,9 8,2 7 4 - - - 1003,1 35
03.06.2020 16:00:00 18,9 9,2 4 2 14 8 - 1004,0 30
03.06.2020 15:00:00 18,3 8,7 11 6 18 10 WNW 1005,0 35
03.06.2020 14:00:00 16,6 11,4 11 6 - - Z 1005,9 27
03.06.2020 13:00:00 17,6 7,3 14 8 18 10 ZZO 1006,3 30
03.06.2020 12:00:00 17,2 6,9 7 4 14 8 WZW 1007,1 35
03.06.2020 11:00:00 17,3 2,0 7 4 - - WZW 1007,4 30
03.06.2020 10:00:00 16,7 6,7 7 4 14 8 - 1007,6 30
03.06.2020 09:00:00 15,7 5,9 7 4 14 8 NW 1008,2 27
03.06.2020 08:00:00 14,6 7,9 4 2 - - - 1008,6 27
03.06.2020 07:00:00 13,4 6,5 4 2 7 4 WZW 1008,9 35
03.06.2020 06:00:00 11,4 5,9 4 2 7 4 Z 1009,4 45
03.06.2020 05:00:00 12,4 4,3 4 2 - - ZZW 1010,0 45
03.06.2020 04:00:00 12,1 6,0 4 2 4 2 ZZO 1010,6 45
03.06.2020 03:00:00 13,5 5,4 4 2 4 2 ZW 1011,3 45
03.06.2020 02:00:00 14,7 6,3 4 2 - - ZZW 1011,7 45
03.06.2020 01:00:00 15,6 5,5 4 2 7 4 WNW 1012,4 45
03.06.2020 00:00:00 16,8 5,8 4 2 7 4 NW 1012,8 45
02.06.2020 23:00:00 17,3 6,9 0 0 - - N 1013,2 45
02.06.2020 22:00:00 19,4 7,2 11 6 18 10 - 1012,7 40
02.06.2020 21:00:00 21,7 6,9 4 2 14 8 NW 1012,2 40
02.06.2020 20:00:00 22,6 6,1 11 6 - - NNW 1012,3 40
02.06.2020 19:00:00 24,2 7,9 11 6 22 12 NW 1012,4 28
02.06.2020 18:00:00 24,5 7,4 7 4 18 10 WNW 1012,9 29
02.06.2020 17:00:00 24,1 8,2 11 6 - - NW 1013,6 30
02.06.2020 16:00:00 24,8 7,9 7 4 22 12 - 1014,0 30
02.06.2020 15:00:00 24,5 8,2 11 6 22 12 - 1014,7 30
02.06.2020 14:00:00 23,9 7,9 7 4 - - NNO 1015,3 30
02.06.2020 13:00:00 23,1 8,2 11 6 25 14 WNW 1016,2 40
02.06.2020 12:00:00 22,4 6,4 7 4 25 14 - 1016,8 30
02.06.2020 11:00:00 21,6 5,6 7 4 - - NW 1017,3 30
02.06.2020 10:00:00 21,8 7,3 7 4 14 8 N 1017,7 35
02.06.2020 09:00:00 18,8 8,3 11 6 22 12 ZZO 1018,4 40
02.06.2020 08:00:00 17,3 6,7 18 10 - - ZZO 1018,7 35
02.06.2020 07:00:00 15,5 5,9 18 10 22 12 ZZO 1019,2 40
02.06.2020 06:00:00 14,9 5,1 18 10 22 12 ZZO 1019,2 45
02.06.2020 05:00:00 15,1 4,7 14 8 - - ZZO 1019,3 50
02.06.2020 04:00:00 15,4 4,7 14 8 22 12 ZO 1019,5 45
02.06.2020 03:00:00 16,0 5,3 14 8 22 12 ZO 1019,5 45
02.06.2020 02:00:00 15,4 5,9 11 6 - - ZO 1020,0 45
02.06.2020 01:00:00 16,0 5,5 11 6 14 8 OZO 1020,1 45
02.06.2020 00:00:00 17,5 5,1 11 6 18 10 O 1020,0 45
01.06.2020 23:00:00 17,9 6,2 11 6 - - O 1019,7 45
01.06.2020 22:00:00 18,1 7,1 7 4 18 10 O 1019,6 40
01.06.2020 21:00:00 19,2 6,2 7 4 22 12 NO 1019,0 45
01.06.2020 20:00:00 22,1 5,8 14 8 - - ONO 1018,3 40
01.06.2020 19:00:00 23,3 6,3 14 8 25 14 ONO 1018,2 35
01.06.2020 18:00:00 23,7 6,7 11 6 25 14 NNO 1018,2 35
01.06.2020 17:00:00 23,7 5,9 11 6 - - OZO 1018,6 40
01.06.2020 16:00:00 23,0 6,0 11 6 25 14 O 1019,0 35
01.06.2020 15:00:00 22,8 7,3 11 6 29 16 - 1019,4 35
01.06.2020 14:00:00 21,2 7,1 14 8 - - OZO 1020,0 35
01.06.2020 13:00:00 20,8 7,8 11 6 32 18 OZO 1020,2 35
01.06.2020 12:00:00 20,5 7,6 18 10 29 16 ONO 1020,5 35
01.06.2020 11:00:00 19,3 7,3 7 4 - - ZO 1021,0 30
01.06.2020 10:00:00 18,0 7,9 7 4 25 14 - 1021,1 40
01.06.2020 09:00:00 15,7 5,7 11 6 22 12 O 1021,7 35
01.06.2020 08:00:00 14,6 5,7 11 6 - - O 1021,7 40
01.06.2020 07:00:00 13,0 5,2 7 4 14 8 O 1021,7 45
01.06.2020 06:00:00 11,2 4,4 11 6 18 10 ZO 1021,9 50
01.06.2020 05:00:00 10,9 4,1 11 6 - - ZZO 1022,0 45
01.06.2020 04:00:00 11,0 4,4 11 6 25 14 ZO 1022,1 45
01.06.2020 03:00:00 11,6 4,2 11 6 22 12 OZO 1022,2 45
01.06.2020 02:00:00 12,0 4,5 11 6 - - OZO 1022,1 50
01.06.2020 01:00:00 12,3 4,3 14 8 25 14 OZO 1022,0 50
01.06.2020 00:00:00 12,2 3,9 14 8 22 12 ZO 1022,2 50
31.05.2020 23:00:00 12,9 4,3 11 6 - - ZO 1021,8 50
31.05.2020 22:00:00 14,6 3,9 11 6 18 10 OZO 1021,2 45
31.05.2020 21:00:00 16,9 4,1 14 8 32 18 ONO 1020,4 45
31.05.2020 20:00:00 18,4 2,8 18 10 - - ONO 1019,8 45
31.05.2020 19:00:00 18,2 2,5 18 10 36 19 NO 1019,7 40
31.05.2020 18:00:00 18,8 2,7 14 8 36 19 O 1019,8 35
31.05.2020 17:00:00 18,8 3,1 14 8 - - ONO 1019,8 30
31.05.2020 16:00:00 18,6 2,3 18 10 32 18 ONO 1020,0 35
31.05.2020 15:00:00 18,6 0,9 11 6 32 18 ONO 1020,1 30
31.05.2020 14:00:00 17,1 -0,3 18 10 - - O 1020,8 35
31.05.2020 13:00:00 16,9 4,6 11 6 32 18 - 1020,9 45
31.05.2020 12:00:00 15,6 3,0 14 8 32 18 NO 1021,5 40
31.05.2020 11:00:00 14,9 3,4 14 8 - - NO 1021,9 35
31.05.2020 10:00:00 14,6 3,4 18 10 25 14 ONO 1021,9 35
31.05.2020 09:00:00 14,3 3,8 11 6 18 10 NO 1021,8 40
31.05.2020 08:00:00 13,8 5,3 4 2 - - N 1021,7 40
31.05.2020 07:00:00 11,1 3,2 7 4 14 8 OZO 1022,1 45
31.05.2020 06:00:00 10,2 2,3 11 6 14 8 OZO 1022,2 50
31.05.2020 05:00:00 10,8 1,8 11 6 - - OZO 1022,1 50
31.05.2020 04:00:00 11,1 1,8 14 8 22 12 OZO 1022,2 50
31.05.2020 03:00:00 11,4 1,5 14 8 25 14 ZO 1022,2 45
31.05.2020 02:00:00 11,8 1,8 18 10 - - ZO 1022,3 45
31.05.2020 01:00:00 12,2 2,4 14 8 29 16 ZO 1022,4 45
31.05.2020 00:00:00 13,4 2,5 11 6 18 10 OZO 1022,2 45
30.05.2020 23:00:00 14,5 2,9 11 6 - - OZO 1021,8 45
30.05.2020 22:00:00 15,1 3,4 7 4 29 16 O 1021,2 45
30.05.2020 21:00:00 17,3 2,6 14 8 25 14 NO 1020,2 45
30.05.2020 20:00:00 18,6 3,0 14 8 - - O 1020,1 45
30.05.2020 19:00:00 19,1 3,5 14 8 32 18 NO 1020,1 40
30.05.2020 18:00:00 19,1 3,7 18 10 32 18 ONO 1020,5 35
30.05.2020 17:00:00 19,9 3,2 18 10 - - ONO 1020,6 35
30.05.2020 16:00:00 19,4 2,9 18 10 32 18 NO 1020,9 40
30.05.2020 15:00:00 18,8 3,4 18 10 36 19 ONO 1021,5 35
30.05.2020 14:00:00 19,4 2,9 18 10 - - ONO 1021,7 35
30.05.2020 13:00:00 18,5 2,5 18 10 36 19 O 1022,3 28
30.05.2020 12:00:00 17,9 2,1 22 12 36 19 OZO 1022,8 30
30.05.2020 11:00:00 16,5 2,2 18 10 - - OZO 1023,3 30
30.05.2020 10:00:00 15,7 2,3 18 10 32 18 OZO 1023,6 35
30.05.2020 09:00:00 15,0 3,2 22 12 29 16 OZO 1023,7 40
30.05.2020 08:00:00 13,6 2,1 18 10 - - OZO 1023,7 35
30.05.2020 07:00:00 11,3 2,2 18 10 25 14 ZO 1024,0 40
30.05.2020 06:00:00 10,2 1,4 18 10 25 14 ZO 1024,1 45
30.05.2020 05:00:00 10,6 1,2 18 10 - - ZO 1024,1 45
30.05.2020 04:00:00 11,1 1,3 22 12 25 14 ZO 1024,1 45
30.05.2020 03:00:00 11,7 1,6 18 10 29 16 ZO 1024,0 45
30.05.2020 02:00:00 12,7 1,0 22 12 - - ZO 1023,9 45
30.05.2020 01:00:00 13,0 0,9 18 10 25 14 ZO 1023,7 50
30.05.2020 00:00:00 13,1 0,1 7 4 11 6 O 1023,9 45
29.05.2020 23:00:00 13,5 3,9 4 2 - - O 1023,8 45
29.05.2020 22:00:00 14,4 3,7 4 2 18 10 O 1023,6 45
29.05.2020 21:00:00 16,7 3,7 7 4 22 12 NO 1023,0 40
29.05.2020 20:00:00 18,4 2,6 11 6 - - ONO 1022,9 35
29.05.2020 19:00:00 19,0 2,5 11 6 32 18 ONO 1023,2 30
29.05.2020 18:00:00 19,5 2,7 11 6 25 14 ONO 1023,4 35
29.05.2020 17:00:00 19,2 3,0 14 8 - - ONO 1023,8 30
29.05.2020 16:00:00 19,2 1,7 14 8 29 16 O 1024,4 26
29.05.2020 15:00:00 18,8 1,8 11 6 29 16 ONO 1024,9 35
29.05.2020 14:00:00 18,0 2,6 11 6 - - - 1025,7 35
29.05.2020 13:00:00 17,7 2,5 11 6 29 16 ZO 1026,5 30
29.05.2020 12:00:00 17,1 1,8 11 6 25 14 O 1027,2 30
29.05.2020 11:00:00 16,4 2,3 14 8 - - O 1027,8 40
29.05.2020 10:00:00 15,4 1,8 11 6 22 12 ZO 1028,0 30
29.05.2020 09:00:00 14,3 2,4 11 6 18 10 ZO 1028,3 30
29.05.2020 08:00:00 13,2 3,4 11 6 - - O 1028,5 30
29.05.2020 07:00:00 10,4 3,5 4 2 14 8 OZO 1028,9 35
29.05.2020 06:00:00 9,2 1,8 11 6 22 12 ZO 1029,0 40
29.05.2020 05:00:00 9,8 1,9 14 8 - - OZO 1029,1 45

tt = temperatuur
td = dauwpunt
ff = windsnelheid
fx = windstoten
dd = windrichting
ppp = luchtdruk
vv = zicht

Weerstations in de omgeving